Sigonella/Catani, Italy

7:30 AM CET on February 28, 2017 (GMT +0100)
Sigonella

Weather History for LICZ - September, 2012

Change the Weather History Date:

Thursday, September 6, 2012

  Actual Average Record
Temperature  
Mean Temperature 78 °F -  
Max Temperature 92 °F 83 °F 100 °F (2008)
Min Temperature 64 °F 62 °F 59 °F (2007)
Cooling Degree Days 13    
Growing Degree Days 28 (Base 50)    
Moisture  
Dew Point 63 °F    
Average Humidity 69    
Maximum Humidity 100    
Minimum Humidity 21    
Precipitation  
Precipitation 0.00 in 0.06 in - ()
Sea Level Pressure  
Sea Level Pressure 30.00 in    
Wind  
Wind Speed 8 mph ()    
Max Wind Speed 16 mph    
Max Gust Speed -    
Visibility 7.6 miles    
Events      
Averages and records for this station are not official NWS values.
T = Trace of Precipitation, MM = Missing Value Source: Averaged Metar Reports

Daily Weather History Graph

Daily Weather History Graph

Search for Another Location

Airport or City:

Trip Planner

Search our weather history database for the weather conditions in past years. The results will help you decide how hot, cold, wet, or windy it might be!

Date:

Astronomy

Sep. 06, 2012 Rise Set
Actual Time 6:35 AM CEST 7:21 PM CEST
Civil Twilight 6:08 AM CEST 7:47 PM CEST
Nautical Twilight 5:37 AM CEST 8:19 PM CEST
Astronomical Twilight 5:04 AM CEST 8:51 PM CEST
Moon 10:28 PM CEST (9/6) 12:10 PM CEST (9/6)
Length of Visible Light 13h 39m
Length of Day
12h 46m
Waning Gibbous, 70% of the Moon is Illuminated
Sep 6
Waning Gibbous
Sep 8
Last Quarter
Sep 16
New
Sep 22
First Quarter
Sep 30
Full

Hourly Weather History & Observations

Time (CEST) Temp. Heat Index Dew Point Humidity Pressure Visibility Wind Dir Wind Speed Gust Speed Precip Events Conditions
12:55 AM 69.8 °F - 68.0 °F 94% 29.98 in - West 12.7 mph - N/A   Clear
1:55 AM 69.8 °F - 68.0 °F 94% 29.98 in - WNW 8.1 mph - N/A   Clear
2:00 AM 69 °F - 68 °F 96% 30.00 in 12 mi WNW 8.1 mph - -  
2:55 AM 66.2 °F - 66.2 °F 100% 29.98 in - West 5.8 mph - N/A   Clear
3:55 AM 64.4 °F - 64.4 °F 100% 29.98 in - NW 3.5 mph - N/A   Clear
4:55 AM 66.2 °F - 62.6 °F 88% 29.98 in - West 4.6 mph - N/A   Clear
5:00 AM 66 °F - 64 °F 89% 29.99 in 12 mi West 4.6 mph - -  
5:55 AM 64.4 °F - 64.4 °F 100% 29.98 in - NW 6.9 mph - N/A   Clear
6:55 AM 64.4 °F - 62.6 °F 94% 30.01 in - WNW 9.2 mph - N/A   Clear
7:55 AM 69.8 °F - 64.4 °F 83% 30.01 in - West 10.4 mph - N/A   Clear
8:00 AM 71 °F - 64 °F 71% 30.01 in 16 mi West 10.4 mph - -  
8:55 AM 75.2 °F - 59.0 °F 57% 30.01 in 6.2 mi West 10.4 mph - N/A   Partly Cloudy
9:55 AM 78.8 °F - 59.0 °F 51% 30.01 in - West 10.4 mph - N/A   Clear
10:55 AM 86.0 °F 84.5 °F 55.4 °F 35% 30.01 in - West 12.7 mph - N/A   Clear
11:00 AM 85 °F - 56 °F 27% 30.02 in 9 mi West 12.7 mph - -  
11:55 AM 87.8 °F 86.5 °F 57.2 °F 35% 30.01 in - WSW 10.4 mph - N/A   Clear
12:55 PM 89.6 °F 87.3 °F 53.6 °F 29% 29.98 in 6.2 mi West 16.1 mph - N/A   Partly Cloudy
1:55 PM 91.4 °F 89.9 °F 57.2 °F 31% 29.98 in 6.2 mi WSW 15.0 mph - N/A   Partly Cloudy
2:00 PM 91 °F - 56 °F 21% 29.99 in 9 mi WSW 15.0 mph - -   Scattered Clouds
2:55 PM 91.4 °F 90.7 °F 59.0 °F 34% 29.98 in 6.2 mi SW 11.5 mph - N/A   Partly Cloudy
3:55 PM 91.4 °F 90.7 °F 59.0 °F 34% 29.98 in 6.2 mi ENE 12.7 mph - N/A   Scattered Clouds
4:55 PM 80.6 °F 81.5 °F 60.8 °F 51% 29.98 in 6.2 mi East 15.0 mph - N/A   Scattered Clouds
5:00 PM 81 °F - 62 °F 42% 29.99 in 7 mi East 15.0 mph - -   Partly Cloudy
5:55 PM 78.8 °F - 66.2 °F 65% 29.98 in 6.2 mi East 11.5 mph - N/A   Scattered Clouds
6:55 PM 77.0 °F - 68.0 °F 74% 29.98 in 6.2 mi East 9.2 mph - N/A   Partly Cloudy
7:55 PM 77.0 °F - 69.8 °F 78% 29.98 in 6.2 mi ENE 6.9 mph - N/A   Partly Cloudy
8:00 PM 77 °F - 69 °F 70% 29.99 in 7 mi ENE 6.9 mph - -   Scattered Clouds
8:55 PM 73.4 °F - 71.6 °F 94% 29.98 in 6.2 mi NE 4.6 mph - N/A   Partly Cloudy
9:55 PM 71.6 °F - 71.6 °F 100% 30.04 in 6.2 mi SW 2.3 mph - N/A   Partly Cloudy
10:55 PM 71.6 °F - 69.8 °F 94% 30.04 in 6.2 mi West 6.9 mph - N/A   Partly Cloudy
11:00 PM 72 °F - 70 °F 91% 30.05 in 7 mi West 6.9 mph - -   Scattered Clouds
11:55 PM 71.6 °F - 64.4 °F 78% 30.04 in 6.2 mi West 8.1 mph - N/A   Partly Cloudy